Flag for Germany Weather past 2 weeks in Kassel, Hesse, Germany

Now
54 °F

Sprinkles. Passing clouds.


Feels Like: 52 °F
Forecast: 41 / 61 °F
Wind: 6 mph from Northwest

Location: Fritzlar Airport

Current Time: Sep 22, 2014 at 3:09:31 AM

Latest Report: Sep 22, 2014 at 2:20 AM


Visibility: N/A

Pressure: 30.04 "Hg

Humidity: 82%

Dew point: 48 °F

Location of KasselLocation

Historic Weather in Kassel — Graph

°F

Kassel temperature yesterday

Maximum temperature yesterday: 61 °F (at 10:50 AM)
Minimum temperature yesterday: 52 °F (at 11:20 PM)
Average temperature yesterday: 57 °F

Past Weeks' High & Low Weather Summary

 TemperatureHumidityPressure
High73 °F (Sep 16, 4:20 PM)100% (Sep 7, 4:20 AM)30.21 "Hg (Sep 7, 4:20 AM)
Low46 °F (Sep 9, 7:20 AM)55% (Sep 10, 2:20 PM)29.89 "Hg (Sep 17, 5:00 PM)
Average60 °F86%30.02 "Hg
* Reported Sep 7 1:20 AM — Sep 22 1:20 AM, Kassel, Weather by CustomWeather, © 2014

Note: Actual official high and low records may vary slightly from our data, if they occured in-between our weather recording intervals... More about our weather records

Advertising

Kassel weather history for previous 24 hours

 ConditionsComfort  
Time TempWeatherWind HumidityBarometerVisibility
1:20 AM
Sep 22
54 °FPartly cloudy.3 mph82%30.04 "HgN/A
12:20 AM52 °FPassing clouds.6 mph88%30.04 "HgN/A
11:20 PM
Sep 21
52 °FPassing clouds.6 mph88%30.04 "HgN/A
10:20 PM54 °FPassing clouds.7 mph82%30.04 "HgN/A
9:20 PM55 °FPassing clouds.8 mph77%30.01 "HgN/A
8:20 PM57 °FBroken clouds.7 mph77%30.01 "HgN/A
7:20 PM59 °FScattered clouds.8 mph72%29.98 "HgN/A
6:20 PM59 °FPartly sunny.7 mph77%29.98 "HgN/A
5:20 PM61 °FPartly sunny.10 mph72%29.98 "HgN/A
4:20 PM61 °FPartly sunny.6 mph83%29.95 "HgN/A
3:20 PM59 °FPartly sunny.7 mph82%29.95 "HgN/A
2:46 PM59 °FLight rain. Partly sunny.9 mph88%29.95 "HgN/A
2:20 PM59 °FLight rain. Broken clouds.6 mph94%29.95 "HgN/A
1:51 PM59 °FLight rain. Broken clouds.8 mph88%29.95 "Hg6 mi
1:20 PM59 °FSprinkles. Broken clouds.7 mph94%29.95 "Hg4 mi
12:20 PM61 °FSprinkles. Broken clouds.9 mph88%29.95 "Hg3 mi
11:20 AM61 °FFog.1 mph94%29.95 "Hg3 mi
10:50 AM61 °FFog.1 mph94%29.95 "Hg2 mi
10:20 AM59 °FFog.2 mph100%29.95 "Hg2 mi
9:20 AM57 °FFog.2 mph100%29.95 "Hg3 mi
8:20 AM55 °FFog.3 mph100%29.95 "Hg1 mi
7:50 AM55 °FRain. Fog.2 mph100%29.95 "Hg1 mi
7:20 AM55 °FLight rain. Fog.1 mph100%29.95 "Hg1 mi
6:20 AM55 °FFog.2 mph100%29.95 "Hg1 mi
5:45 AM55 °FFog.No wind100%29.95 "Hg1 mi
5:20 AM55 °FFog.2 mph94%29.95 "Hg0 mi
4:20 AM55 °FFog.1 mph94%29.95 "Hg0 mi
3:20 AM54 °FFog.1 mph100%29.95 "Hg0 mi
Weather by CustomWeather, © 2014

See weather overviewHow to use our weather pages